Content
SEND FEEDBACK

Daily
Averages
Monthly
Summary
United States of America

BOX ELDER, SOUTH DAKOTA


Home > North America > United States > South Dakota
Elevation: 3170 feet     Latitude: 44 09N     Longitude: 103 06W

WEATHER
 
SELECT A DAY
Number of Records: 204,367;   Date Range: 1/1/95 - 9/21/14
 
SHARE

PRINT THIS DATA

[ ← Previous Day ]
WEATHER ALMANAC - NOVEMBER 5, 2013
[ Next Day → ]
[ °C ]   °F
Weather ElementAverageHighLow
Temperature26.9 °F32 °F (12:09 am)16.7 °F (11:58 pm)
Dewpoint24.7 °F28.8 °F (1:58 am)14 °F (11:33 pm)
Humidity91.5 %100 % (3:12 am)80 % (12:09 am)
Barometer30.14 in30.26 in (9:58 am)30.06 in (3:12 am)
Wind Speed5.5 mph9.2 mph (10:51 am)
Weather ElementAverage
Visibility3.6 mi
Wind DirectionESE (116.5 °)

Weather ElementTotal
Precipitation0.20 in
Heating Degree Days40.7 (Base 65)
Averaged from 86 records on November 5, 2013
WEATHER CONDITIONS BREAKOUT
WIND DIRECTION BREAKOUT
WEATHER BY HOUR - NOVEMBER 5, 2013
[ °C ]   °F
Local TimeTemperatureDewpointHumidityBarometerVisibilityWind DirectionWind SpeedGust SpeedPrecipitationEventsConditions
12:09 AM32.0 °F26.6 °F80 %30.10 in10.0 miESE (120°)3.5 mphOvercast
12:30 AM32.0 °F26.6 °F80 %30.10 in3.0 miSE (140°)4.6 mphSnowLight Snow
12:58 AM30.6 °F27.7 °F89 %30.18 in3.0 miSE (130°)5.8 mph0.00 inSnowLight Snow
1:28 AM30.2 °F28.4 °F93 %30.09 in2.5 miSE (130°)4.6 mphSnowLight Snow
1:52 AM30.2 °F28.4 °F93 %30.09 in2.0 miESE (120°)5.8 mphSnowLight Snow
1:57 AM30.2 °F28.4 °F93 %30.09 in1.8 miESE (120°)5.8 mphSnowLight Snow
1:58 AM30.0 °F28.8 °F95 %30.17 in1.8 miESE (120°)5.8 mph0.01 inSnowLight Snow
1:59 AM30.2 °F28.4 °F93 %30.09 in1.8 miESE (120°)5.8 mphSnowLight Snow
2:34 AM30.2 °F28.4 °F93 %30.07 in1.0 miEast (90°)4.6 mphSnowLight Snow
2:41 AM30.2 °F28.4 °F93 %30.08 in2.0 miEast (90°)4.6 mphSnowLight Snow
2:58 AM29.3 °F27.9 °F94 %30.15 in1.0 miEast (80°)5.8 mph0.00 inSnowLight Snow
3:12 AM28.4 °F28.4 °F100 %30.06 in3.0 miNE (50°)4.6 mphSnowLight Snow
3:22 AM28.4 °F28.4 °F100 %30.07 in3.0 miENE (70°)5.8 mphSnowLight Snow
3:32 AM28.4 °F28.4 °F100 %30.07 in1.0 miENE (70°)4.6 mphSnowLight Snow
3:38 AM28.4 °F28.4 °F100 %30.07 in2.5 miENE (70°)4.6 mphSnowLight Snow
3:58 AM28.4 °F28.4 °F100 %30.16 in1.0 miEast (80°)4.6 mph0.01 inSnowLight Snow
4:03 AM28.4 °F28.4 °F100 %30.07 in1.0 miENE (70°)4.6 mphSnowLight Snow
4:56 AM28.4 °F28.4 °F100 %30.08 in1.0 miEast (80°)4.6 mphSnowLight Snow
4:58 AM29.1 °F27.9 °F95 %30.17 in1.0 miEast (80°)4.6 mph0.00 inSnowLight Snow
5:58 AM28.8 °F27.3 °F94 %30.19 in1.0 miEast (80°)4.6 mph0.01 inSnowLight Snow
6:08 AM28.4 °F26.6 °F93 %30.10 in1.0 miENE (70°)5.8 mphSnowLight Snow
6:18 AM28.4 °F26.6 °F93 %30.10 in2.0 miENE (70°)4.6 mphSnowLight Snow
6:43 AM28.4 °F26.6 °F93 %30.11 in1.0 miEast (80°)5.8 mphSnowLight Snow
6:58 AM28.2 °F26.8 °F94 %30.22 in0.8 miEast (80°)5.8 mph0.00 inSnowLight Snow
7:03 AM28.4 °F26.6 °F93 %30.12 in1.0 miENE (70°)5.8 mphSnowLight Snow
7:28 AM28.4 °F26.6 °F93 %30.12 in1.2 miENE (60°)4.6 mphSnowLight Snow
7:38 AM28.4 °F26.6 °F93 %30.13 in0.8 miENE (70°)6.9 mphSnowLight Snow
7:58 AM28.0 °F26.2 °F93 %30.23 in0.8 miENE (70°)6.9 mph0.00 inSnowLight Snow
8:09 AM28.4 °F26.6 °F93 %30.13 in1.0 miENE (70°)5.8 mphSnowLight Snow
8:14 AM28.4 °F26.6 °F93 %30.14 in1.0 miNE (50°)4.6 mphSnowLight Snow
8:39 AM28.4 °F26.6 °F93 %30.14 in1.0 miNE (50°)5.8 mphSnowLight Snow
8:58 AM28.4 °F26.6 °F93 %30.25 in1.0 miNE (50°)6.9 mph0.00 inSnowLight Snow
9:11 AM28.4 °F26.6 °F93 %30.14 in1.2 miENE (60°)6.9 mphSnowLight Snow
9:21 AM28.4 °F26.6 °F93 %30.14 in1.5 miENE (70°)8.1 mphSnowLight Snow
9:26 AM28.4 °F26.6 °F93 %30.14 in1.8 miENE (70°)5.8 mphSnowLight Snow
9:31 AM28.4 °F26.6 °F93 %30.14 in2.0 miENE (70°)8.1 mphSnowLight Snow
9:36 AM28.4 °F26.6 °F93 %30.14 in1.8 miENE (60°)5.8 mphSnowLight Snow
9:56 AM28.4 °F26.6 °F93 %30.15 in1.5 miEast (80°)8.1 mphSnowLight Snow
9:58 AM28.4 °F26.1 °F91 %30.26 in1.5 miENE (70°)8.1 mph0.04 inSnowLight Snow
10:13 AM28.4 °F26.6 °F93 %30.15 in1.2 miEast (80°)8.1 mphSnowLight Snow
10:23 AM28.4 °F26.6 °F93 %30.15 in1.0 miEast (80°)8.1 mphSnowLight Snow
10:29 AM28.4 °F26.6 °F93 %30.15 in1.0 miENE (70°)6.9 mphSnowLight Snow
10:36 AM28.4 °F26.6 °F93 %30.15 in1.0 miEast (80°)6.9 mphSnowLight Snow
10:41 AM28.4 °F26.6 °F93 %30.15 in1.2 miEast (80°)6.9 mphSnowLight Snow
10:46 AM28.4 °F26.6 °F93 %30.15 in1.5 miEast (80°)8.1 mphSnowLight Snow
10:51 AM28.4 °F26.6 °F93 %30.15 in2.0 miEast (80°)9.2 mphSnowLight Snow
10:56 AM28.4 °F26.6 °F93 %30.14 in2.5 miEast (80°)8.1 mphSnowLight Snow
10:58 AM28.4 °F26.6 °F93 %30.25 in3.0 miEast (80°)8.1 mph0.05 inSnowLight Snow
11:03 AM28.4 °F26.6 °F93 %30.14 in3.0 miEast (80°)6.9 mphOvercast
11:30 AM30.2 °F26.6 °F86 %30.14 in4.0 miEast (100°)6.9 mphSnowLight Snow
11:33 AM30.2 °F26.6 °F86 %30.13 in4.0 miEast (90°)6.9 mphSnowLight Snow
11:38 AM30.2 °F26.6 °F86 %30.13 in5.0 miEast (90°)6.9 mphSnowLight Snow
11:43 AM30.2 °F26.6 °F86 %30.13 in5.0 miEast (90°)5.8 mphSnowLight Snow
11:58 AM29.8 °F26.1 °F86 %30.23 in6.0 miESE (110°)8.1 mph0.03 inSnowLight Snow
11:59 AM30.2 °F26.6 °F86 %30.13 in6.0 miESE (110°)8.1 mphSnowLight Snow
12:58 PM28.9 °F25.0 °F85 %30.22 in10.0 miEast (100°)4.6 mph0.03 inSnowLight Snow
1:09 PM28.4 °F24.8 °F86 %30.11 in10.0 miEast (90°)1.2 mphSnowLight Snow
1:31 PM28.4 °F24.8 °F86 %30.10 in10.0 miVariable3.5 mphOvercast
1:52 PM28.4 °F24.8 °F86 %30.10 in10.0 miSE (130°)5.8 mphOvercast
1:58 PM29.1 °F25.3 °F86 %30.21 in10.0 miESE (120°)5.8 mph0.01 inOvercast
2:13 PM28.4 °F26.6 °F93 %30.10 in10.0 miVariable6.9 mphOvercast
2:14 PM28.4 °F26.6 °F93 %30.10 in10.0 miSE (140°)8.1 mphOvercast
2:58 PM28.9 °F25.5 °F87 %30.23 in10.0 miSE (130°)5.8 mph0.01 inOvercast
3:53 PM30.2 °F24.8 °F80 %30.10 in10.0 miSouth (180°)6.9 mphOvercast
3:58 PM30.0 °F24.6 °F80 %30.21 in10.0 miSouth (180°)8.1 mphOvercast
4:58 PM26.4 °F22.6 °F86 %30.22 in10.0 miSouth (180°)5.8 mphClear
5:58 PM25.9 °F22.3 °F86 %30.22 in10.0 miSouth (180°)6.9 mphClear
6:58 PM25.0 °F22.1 °F89 %30.23 in10.0 miSouth (180°)8.1 mphClear
7:58 PM24.3 °F21.7 °F90 %30.22 in10.0 miSouth (190°)5.8 mphClear
8:28 PM23.0 °F21.2 °F93 %30.09 in2.0 miSouth (190°)4.6 mphClear
8:33 PM23.0 °F21.2 °F93 %30.09 in1.0 miSSW (210°)3.5 mphClear
8:38 PM23.0 °F21.2 °F93 %30.09 in0.8 miSSW (200°)3.5 mphClear
8:58 PM21.6 °F19.6 °F92 %30.23 in10.0 miSouth (190°)2.3 mphPartly Cloudy
9:58 PM21.2 °F19.4 °F93 %30.23 in6.0 miSSW (200°)2.3 mphClear
10:19 PM19.4 °F17.6 °F93 %30.08 in0.2 miSSW (210°)2.3 mphFogLight Freezing Fog
10:34 PM19.4 °F17.6 °F93 %30.08 in3.0 miSSW (210°)2.3 mphScattered Clouds
10:54 PM19.4 °F15.8 °F86 %30.07 in0.8 miSW (230°)2.3 mphClear
10:58 PM17.6 °F15.8 °F93 %30.22 in1.0 miSW (220°)2.3 mphClear
11:03 PM17.6 °F15.8 °F93 %30.07 in1.2 miSW (230°)2.3 mphClear
11:08 PM17.6 °F15.8 °F93 %30.07 in1.5 miSW (220°)3.5 mphClear
11:13 PM17.6 °F15.8 °F93 %30.07 in2.0 miSW (220°)2.3 mphClear
11:18 PM17.6 °F15.8 °F93 %30.07 in1.2 miWSW (240°)2.3 mphClear
11:23 PM17.6 °F15.8 °F93 %30.07 in1.2 miSW (230°)2.3 mphClear
11:28 PM17.6 °F15.8 °F93 %30.07 in2.0 miSW (220°)3.5 mphClear
11:33 PM17.6 °F14.0 °F86 %30.07 in7.0 miSSW (210°)4.6 mphClear
11:58 PM16.7 °F14.2 °F90 %30.21 in10.0 miSW (230°)2.3 mphClear
Hourly data recorded from KRCA, located miles away from Box Elder, South Dakota







STORIES FROM OUR PARTNERS